Theta_e
313 313 315 318 320 322 321 320 321 319 322 322 317 322 319 318 322 318 318 318 317 318 318 317 317 317 318 320 322 325 323 325 327 322 323 323 323 325 329 331 332 337 337 336 338 338 337 338 337 337 336 334 333 332 331 329 328 327 327 327 326 324 322 322 323 326 328 331 331 333 334 334 333 333 331 328 327 327 329 332 331 330 328 325 323 321 318 315 314 312 311 310 311 313 315 316 317
313 314 318 321 321 323 321 320 326 326 326 320 316 321 319 319 320 318 320 318 318 319 320 319 319 321 321 321 322 325 328 328 328 325 325 323 323 326 328 329 332 337 337 335 337 337 338 338 337 337 336 334 333 331 329 328 326 326 326 326 326 323 320 320 320 321 323 326 329 332 332 332 331 330 329 327 326 324 325 330 331 330 327 325 322 319 315 312 312 311 308 307 308 309 311 314 315
316 318 320 323 323 322 325 322 324 327 327 320 318 321 319 318 320 320 319 316 319 319 319 319 319 321 320 322 323 324 328 328 328 327 323 320 322 326 327 329 333 337 336 335 336 337 338 337 337 337 336 334 331 330 328 327 327 326 325 325 325 324 321 319 319 319 320 322 326 329 331 331 330 327 325 325 325 322 321 327 330 328 326 324 321 317 314 312 312 311 307 307 308 308 308 310 313
319 321 321 323 323 322 335 332 327 329 324 321 320 321 322 322 322 319 316 316 319 318 318 319 320 320 319 322 322 322 325 325 326 325 321 320 322 325 328 331 334 335 335 336 336 337 338 337 337 336 336 334 331 330 329 328 328 327 326 325 325 325 322 319 318 319 319 320 321 325 328 328 328 325 324 325 324 322 321 324 326 325 324 323 320 317 315 313 313 311 307 307 308 308 308 308 310
320 322 320 322 323 322 332 328 328 333 322 322 321 321 327 326 322 316 314 316 316 318 317 319 321 320 320 322 322 322 323 323 323 323 321 320 321 325 329 332 334 335 336 335 335 336 337 337 336 336 335 334 331 330 330 330 330 329 328 326 325 325 323 320 319 319 319 320 320 322 325 325 324 324 324 325 324 323 322 322 323 323 323 322 320 318 316 313 313 312 307 307 308 308 308 308 308
320 321 320 321 321 318 324 321 322 328 322 323 322 321 325 320 317 314 314 316 316 317 317 318 320 320 323 324 323 323 322 321 321 321 322 320 321 325 329 332 335 336 336 335 336 336 336 337 337 336 335 334 333 332 332 332 331 331 331 328 325 325 324 321 319 319 319 320 320 320 322 323 324 325 325 326 325 324 324 324 325 325 324 323 321 318 315 313 313 312 308 306 307 308 308 308 309
319 321 321 322 321 317 324 325 320 323 317 317 322 322 320 315 314 314 314 316 316 317 317 319 318 319 323 322 322 323 322 320 319 320 321 320 321 325 327 332 335 335 336 336 336 336 336 336 336 336 336 335 334 334 334 333 333 332 332 331 327 325 325 322 320 319 320 320 321 321 322 324 325 326 327 326 326 326 326 327 327 326 324 323 321 318 314 312 312 312 309 306 306 307 308 308 308
320 320 319 326 327 324 329 323 320 324 316 311 316 319 316 314 314 313 314 314 315 317 318 318 317 320 320 319 321 322 321 320 319 319 320 320 322 325 328 332 334 334 335 335 336 336 335 336 336 336 336 336 335 335 335 334 334 334 333 332 329 327 325 323 321 321 321 321 321 322 324 326 326 327 327 327 327 327 328 328 327 325 323 322 321 319 314 312 312 312 309 305 305 306 306 307 307
321 321 319 326 328 328 328 320 317 319 316 314 313 315 315 314 313 313 314 313 315 316 318 317 316 320 320 318 321 321 321 320 320 319 320 320 323 326 328 331 334 335 335 335 337 337 335 335 336 336 336 336 336 335 335 336 334 334 333 332 331 328 326 323 323 323 322 322 322 322 325 327 327 328 328 328 328 327 327 327 326 324 322 322 322 320 315 313 312 310 307 305 304 304 304 305 305
320 320 318 325 327 323 321 318 321 319 316 316 312 314 315 313 314 313 314 315 315 316 317 317 316 319 320 319 320 320 321 320 319 320 320 321 324 327 330 332 334 335 336 336 337 337 336 335 335 335 335 335 336 336 335 336 335 334 334 333 331 328 327 325 325 325 323 324 323 323 326 328 328 328 328 329 329 328 326 325 324 324 323 325 325 321 316 313 312 309 305 304 303 303 303 303 303
320 317 318 332 331 322 321 320 322 321 317 316 313 315 315 314 314 313 315 315 315 316 316 316 318 318 318 317 318 319 321 321 321 321 321 322 324 327 332 333 332 333 333 336 338 336 335 334 336 334 334 336 335 336 335 335 335 334 334 333 332 329 328 327 327 327 326 327 326 325 327 329 329 328 328 328 329 328 325 324 323 324 325 326 325 322 317 315 313 309 305 303 303 303 303 303 304
317 318 330 339 330 325 325 321 319 321 319 317 315 315 315 314 315 314 314 315 314 315 314 316 319 318 316 316 316 317 320 323 323 323 323 324 324 327 331 331 333 334 331 332 335 335 336 335 335 335 334 335 335 335 335 335 335 335 335 333 332 330 328 328 327 327 327 327 327 328 328 329 329 328 328 327 327 328 325 324 324 325 326 326 324 321 319 316 313 310 307 305 303 303 302 303 304
316 322 342 331 320 327 325 320 320 321 319 317 316 314 315 314 315 315 314 315 314 314 315 315 317 317 317 315 314 315 318 324 325 325 324 325 326 327 330 331 333 335 329 328 332 332 334 335 335 336 334 334 335 335 335 335 336 335 335 334 333 331 329 329 327 327 327 326 325 327 328 329 329 328 328 327 327 327 325 324 326 326 325 326 323 321 319 317 314 312 309 307 305 304 303 303 303
316 320 340 326 315 323 321 320 320 319 320 319 316 314 316 315 315 315 314 316 314 314 315 315 316 317 316 314 313 313 316 322 325 326 326 327 329 329 330 332 331 334 333 334 339 331 326 331 333 335 333 334 335 334 335 335 335 335 336 335 334 332 330 330 329 328 327 326 324 324 326 327 328 328 327 326 327 327 325 325 326 325 324 325 323 321 320 318 316 314 313 311 310 308 307 306 304
317 315 330 327 317 320 319 321 321 320 321 319 316 314 316 315 315 315 315 317 315 314 315 316 317 316 317 316 315 313 314 319 322 325 326 327 329 330 332 333 330 333 336 334 335 328 325 326 329 336 335 333 334 333 335 335 335 335 335 335 334 334 332 331 329 329 328 327 325 323 323 325 327 327 326 325 326 326 325 325 325 323 324 324 323 322 321 319 317 315 316 316 315 314 312 311 309
318 316 330 329 318 319 318 319 321 322 320 316 315 315 315 315 315 315 315 315 315 314 314 315 316 316 316 316 315 313 313 315 318 322 325 326 327 328 330 332 331 329 330 328 326 324 326 322 325 339 338 332 333 333 335 335 335 335 335 335 334 335 334 333 330 329 329 327 326 324 324 325 326 326 325 325 325 325 325 325 324 324 324 324 324 323 322 320 318 316 317 318 318 318 316 315 313
316 322 335 328 318 320 319 319 320 323 323 316 313 315 316 315 315 315 315 315 315 314 314 314 315 315 315 315 315 313 312 313 314 317 320 324 325 325 325 327 330 329 328 328 325 323 325 324 324 331 331 330 333 333 334 335 334 334 334 334 334 335 335 334 331 330 329 327 326 325 324 325 326 325 325 325 325 326 326 326 325 325 325 324 325 324 323 321 319 318 319 320 319 319 318 317 317
321 332 333 321 319 321 320 322 317 318 322 315 313 315 315 316 315 315 315 314 314 314 313 314 314 314 315 315 314 313 313 312 313 314 315 318 321 323 323 321 325 327 327 325 323 321 323 325 323 323 324 328 334 333 333 334 334 333 333 334 334 335 335 335 333 331 329 328 327 326 325 325 325 325 325 325 325 326 326 326 326 326 326 326 326 325 324 323 321 320 320 321 320 320 319 319 320
321 333 332 323 324 320 315 317 313 314 317 314 314 315 315 317 315 314 315 314 313 314 314 313 313 314 315 315 314 313 313 312 312 313 313 314 315 318 319 319 320 321 322 320 319 318 320 322 321 324 325 328 333 332 330 334 334 333 333 333 334 334 335 334 334 333 331 329 327 326 326 325 325 325 326 325 326 327 327 327 327 327 327 327 326 326 325 324 323 322 322 321 320 321 321 321 321
315 326 332 325 321 317 313 313 313 315 315 313 314 314 315 316 315 315 315 314 312 314 315 313 313 314 314 314 315 314 313 313 313 313 313 314 314 315 316 317 318 318 317 317 317 315 316 318 319 323 324 325 331 329 329 334 334 333 333 333 334 334 335 334 334 334 333 330 328 327 326 326 326 326 326 325 326 329 329 328 328 327 327 327 327 327 326 326 325 324 323 321 321 321 321 321 322
314 321 328 319 313 315 315 314 315 315 314 314 314 314 315 315 315 314 313 316 315 314 315 315 315 315 315 314 314 314 313 313 313 313 313 314 314 314 315 315 316 316 316 316 316 316 314 315 316 318 320 321 325 325 327 329 330 332 331 332 333 333 334 334 334 334 333 332 330 328 327 327 327 326 327 327 327 329 330 329 329 328 327 327 327 328 327 327 326 326 325 323 322 322 322 322 322
315 315 317 314 312 315 316 314 315 315 315 315 314 315 316 315 315 314 314 318 318 315 315 315 316 315 315 314 314 314 313 313 313 313 313 314 314 315 315 315 315 315 315 316 316 316 315 315 315 315 317 318 321 322 322 322 325 329 329 329 330 331 332 333 334 333 333 333 332 330 330 329 327 327 329 330 330 330 332 331 329 329 328 328 328 328 328 327 327 326 326 325 323 322 322 322 322
319 315 312 313 313 315 316 314 315 315 315 315 314 315 315 314 315 314 314 316 317 315 315 315 315 315 315 314 314 313 313 313 313 313 313 314 314 315 315 315 315 315 315 314 314 315 314 314 314 314 315 317 319 320 320 320 323 330 333 330 328 329 331 332 333 333 333 333 333 331 331 331 329 327 329 331 332 332 332 331 330 330 330 329 329 328 328 326 327 326 327 326 324 323 322 322 322
321 319 313 314 314 315 316 315 315 315 316 316 315 315 314 314 315 314 314 315 316 315 315 315 315 315 315 314 314 313 313 313 313 313 313 314 314 315 315 315 314 313 313 312 313 313 313 313 313 314 314 316 319 321 322 320 325 336 338 330 326 329 331 331 332 331 332 333 332 332 331 332 331 329 329 331 332 332 332 332 331 331 330 330 329 328 328 327 327 326 327 327 325 324 322 322 322
319 319 314 315 315 315 316 315 315 315 315 315 315 314 314 315 314 313 314 315 315 315 315 315 315 315 315 315 314 313 313 312 312 312 312 313 314 314 314 314 313 312 312 312 313 312 313 313 313 313 313 314 317 321 324 322 325 334 335 328 326 330 331 331 332 331 331 331 331 331 331 331 332 330 330 331 332 331 331 331 331 331 330 329 329 328 328 328 327 326 327 327 326 325 323 323 323
316 316 315 315 315 315 316 316 315 315 314 314 315 314 314 313 313 314 315 315 315 315 315 315 315 315 315 315 313 313 313 313 312 312 312 312 313 313 313 313 312 312 312 312 313 312 313 312 313 313 312 313 315 320 324 324 323 327 328 326 327 329 328 330 331 331 330 331 330 330 331 332 332 332 332 332 331 330 331 331 330 330 329 329 329 329 328 328 328 327 327 327 325 325 324 323 323
315 315 315 315 315 315 315 316 316 314 314 314 315 315 314 312 313 316 315 314 314 314 315 314 315 314 314 314 313 313 312 312 312 311 311 312 312 312 312 312 312 312 312 312 313 313 313 313 313 313 312 313 313 318 323 325 325 326 328 327 330 332 329 328 329 331 330 330 330 331 331 331 332 332 332 332 331 330 330 330 330 329 328 328 328 328 328 328 327 327 327 327 326 325 325 323 323
315 315 316 315 314 315 315 314 314 314 314 314 314 314 313 312 313 316 315 315 314 314 314 314 314 313 313 313 312 313 312 312 311 311 311 311 312 311 312 312 312 312 312 312 313 313 313 313 313 313 313 312 313 319 324 326 326 329 330 327 331 336 334 330 328 330 329 328 329 330 331 331 331 332 330 329 328 328 329 329 329 328 328 327 327 328 327 326 326 327 327 326 326 325 324 323 323
315 315 318 320 319 319 315 313 313 314 315 314 314 315 315 315 314 315 315 314 315 313 314 313 313 312 312 312 312 312 312 311 311 311 311 311 311 311 312 312 312 313 313 313 313 313 313 313 313 312 313 313 313 320 326 328 327 328 330 327 330 334 334 332 330 329 328 330 331 330 332 332 330 330 328 328 328 328 329 329 328 328 328 327 327 328 326 324 325 327 326 325 326 325 323 323 323
316 314 316 322 324 324 315 311 313 313 314 314 314 318 325 323 315 313 314 314 314 313 313 313 312 312 312 311 311 311 311 311 311 311 311 311 311 312 312 312 313 313 313 314 313 313 313 312 313 313 313 313 313 321 327 328 328 328 328 327 328 331 331 331 331 329 328 330 332 331 331 330 329 329 329 330 330 329 329 328 328 328 327 326 326 325 323 324 326 326 325 325 324 324 323 322 322
320 313 318 324 320 327 321 310 313 314 314 313 314 319 324 325 316 312 314 313 313 313 313 312 312 312 311 312 311 311 311 310 311 310 311 311 311 312 312 313 313 313 313 313 312 313 313 312 313 313 313 313 315 322 327 328 328 327 326 326 326 328 331 330 329 328 327 327 329 329 329 328 328 329 329 329 328 328 328 327 327 326 325 325 324 323 324 325 326 326 325 324 323 323 322 322 321
326 315 324 327 317 330 329 310 311 317 314 311 315 320 320 321 315 312 313 313 313 313 313 312 312 312 311 311 311 311 311 310 310 310 311 311 311 312 312 313 313 312 312 312 312 312 312 313 313 313 315 316 319 323 326 327 326 324 324 326 325 326 328 327 326 327 328 328 327 327 327 327 328 328 328 328 328 327 326 326 325 323 324 326 324 324 325 326 325 325 324 323 323 322 322 321 321
332 320 323 329 319 325 326 314 310 312 313 312 314 319 323 320 312 310 312 312 312 312 312 312 312 312 311 311 312 311 311 310 310 311 311 311 312 312 312 312 312 312 312 312 313 312 312 313 312 315 317 318 321 323 326 327 325 326 327 328 327 327 327 326 325 325 328 328 326 326 326 326 327 327 327 327 327 326 324 324 323 322 324 326 325 325 325 325 324 324 323 322 322 322 321 320 319
330 320 319 327 323 320 323 323 314 309 313 315 313 315 320 318 311 310 312 311 311 310 311 312 312 312 311 311 311 311 311 310 311 311 311 311 311 312 312 312 312 312 312 312 312 312 312 313 313 315 318 321 323 323 327 327 325 326 327 327 327 328 327 328 326 323 325 326 325 326 327 326 326 326 327 326 325 325 324 323 322 322 323 325 324 323 323 323 323 322 321 321 319 318 317 316 316
331 324 322 325 322 319 322 325 316 311 314 315 315 315 316 316 311 310 312 311 311 311 312 312 311 312 311 311 311 311 311 311 311 311 311 311 311 311 311 311 311 312 312 311 312 312 312 313 314 315 318 322 322 323 327 326 324 324 324 325 327 327 326 325 325 325 326 326 326 326 326 326 325 325 325 324 324 323 322 322 322 322 323 322 321 321 321 321 321 320 319 317 313 310 308 309 310
331 330 329 327 323 321 323 324 317 312 314 316 316 316 315 316 314 311 311 311 310 311 311 310 310 311 311 311 311 311 311 311 311 311 311 310 310 311 311 311 311 311 311 311 311 311 312 312 314 317 320 321 320 322 323 322 323 325 325 326 325 325 326 324 323 325 326 326 325 325 324 324 323 323 322 321 321 320 320 321 322 321 320 320 320 320 320 319 318 315 312 308 306 305 305 305 306
324 326 327 325 324 323 323 324 317 309 314 319 316 315 315 315 316 312 309 310 308 308 308 308 310 310 311 312 311 311 311 311 311 310 310 310 310 310 310 310 310 310 310 310 311 312 313 313 315 317 319 320 321 323 322 319 322 325 324 325 325 324 324 323 323 326 325 324 324 322 322 321 320 320 319 319 319 320 320 321 321 320 320 319 319 319 317 315 311 307 305 303 303 304 304 305 306
319 321 322 322 323 322 320 320 317 311 313 320 318 315 315 313 314 311 308 308 308 308 308 309 310 311 311 312 312 312 311 311 310 310 310 309 309 310 310 310 310 310 310 310 311 312 314 315 316 316 317 319 321 324 324 322 320 321 322 323 324 325 324 323 324 324 323 322 321 321 320 319 319 319 318 318 320 320 320 320 320 320 318 316 316 314 311 308 305 302 301 301 301 302 303 304 305
317 319 318 321 322 320 320 319 316 312 314 321 321 316 315 314 313 310 308 308 310 310 311 312 313 312 311 312 312 312 311 311 310 310 310 309 309 309 309 310 310 310 310 311 311 313 315 316 316 315 318 319 319 322 324 322 321 322 323 323 322 323 322 322 322 321 321 320 319 319 318 318 318 318 317 318 320 320 320 319 318 315 311 309 310 307 304 302 301 300 299 299 300 300 301 302 302
318 319 318 321 321 319 323 321 315 313 315 318 319 316 315 314 314 313 310 309 310 311 311 312 312 312 313 313 313 312 312 312 311 310 310 309 309 309 309 310 310 310 310 311 312 312 313 315 316 316 318 319 319 321 322 321 323 323 323 322 322 321 321 321 321 320 319 318 318 317 317 317 318 318 317 317 317 316 315 313 311 307 304 303 303 302 300 300 299 299 298 298 298 298 298 298 298
320 319 318 319 320 319 322 322 318 319 320 317 317 318 320 319 317 316 314 311 311 311 311 311 311 312 312 312 312 312 312 312 311 311 310 310 309 309 310 310 310 310 310 311 312 311 311 314 316 317 318 321 320 320 321 322 323 322 322 322 321 321 321 320 319 318 317 317 317 316 317 317 316 316 314 312 310 308 306 305 303 302 301 300 299 300 299 299 299 298 297 296 296 296 296 296 295
322 322 319 317 319 320 320 320 318 322 326 319 316 323 330 331 324 319 318 316 314 312 309 310 312 312 312 312 312 312 311 311 311 311 310 310 310 309 309 310 310 310 310 311 312 311 311 314 317 318 319 321 320 320 321 322 321 320 321 322 321 320 319 318 318 317 317 316 316 315 314 312 311 309 306 304 303 302 301 301 300 300 299 299 298 298 298 298 297 297 296 295 296 295 294 295 294
322 324 321 317 317 318 319 320 319 324 328 318 315 323 328 327 323 322 324 323 322 318 311 309 312 312 312 313 313 311 310 310 310 310 310 310 310 310 310 310 310 310 310 311 312 312 312 315 317 319 320 322 321 321 320 320 321 320 320 320 320 319 318 317 316 316 316 315 313 312 309 305 303 302 301 300 300 300 300 299 299 298 298 298 298 297 297 297 296 296 295 295 295 295 294 294 294
325 323 321 320 318 317 319 319 321 324 324 319 320 323 322 321 321 322 325 326 326 324 319 314 312 312 313 313 313 312 311 311 310 310 310 310 310 310 310 310 310 310 310 312 313 312 314 316 317 318 321 320 320 321 320 319 320 320 320 319 319 318 317 317 315 315 313 311 309 306 303 301 299 299 299 299 298 298 298 298 298 297 298 297 296 296 296 295 295 295 295 294 294 294 294 294 294
325 318 317 320 319 319 320 320 321 321 320 323 325 321 320 324 325 321 319 322 324 324 324 320 314 314 314 313 314 313 312 312 311 311 310 310 310 310 310 310 310 309 310 312 313 313 315 318 317 318 320 319 318 319 319 319 318 318 318 318 317 316 316 316 315 313 310 307 305 302 300 299 298 298 298 298 298 298 297 297 297 297 296 296 295 295 295 294 294 294 294 294 294 294 293 293 293
317 313 317 320 321 322 324 324 324 323 321 323 326 323 320 324 327 324 320 322 325 324 323 319 314 315 315 315 315 314 313 312 310 310 310 310 310 310 309 309 309 309 310 311 313 314 316 319 318 318 319 319 318 318 317 317 317 317 316 316 316 315 315 315 313 310 306 304 302 300 298 298 298 298 298 298 297 297 297 297 296 296 295 295 295 294 294 294 294 294 294 293 293 293 293 292 292
312 318 325 325 325 326 326 326 323 324 324 322 325 325 321 323 325 325 324 325 327 325 323 323 317 314 315 316 316 315 314 312 310 309 309 309 309 309 309 309 309 310 310 311 313 314 316 318 319 318 318 317 317 316 315 316 317 316 316 316 316 315 314 313 310 307 304 301 300 299 298 298 298 298 298 297 297 297 296 296 295 295 295 294 294 294 294 294 294 293 293 293 293 293 292 292 292
315 329 330 325 328 327 326 326 324 325 325 322 323 321 319 322 323 325 324 322 324 323 324 330 325 315 314 316 315 315 314 312 310 309 308 308 308 308 308 308 309 310 310 310 313 315 314 315 317 317 317 317 316 315 314 316 316 315 315 315 315 315 313 311 308 305 303 301 300 299 299 299 298 298 298 297 297 296 296 295 295 295 294 294 294 294 294 294 293 293 293 293 292 292 292 292 291
319 329 326 323 327 324 324 326 324 325 322 317 318 318 319 321 322 325 324 321 322 318 316 321 319 313 314 315 314 314 313 311 310 309 308 308 308 308 308 308 309 309 309 310 313 316 314 314 314 315 315 315 315 315 314 315 315 314 314 313 314 314 311 308 305 303 302 301 300 300 300 299 299 298 297 297 296 296 295 295 295 294 294 294 294 294 294 293 293 293 293 292 292 292 292 291 291
319 323 324 324 325 326 329 327 323 323 321 315 314 317 321 323 323 323 322 320 319 314 312 315 314 313 314 313 312 313 312 311 310 309 309 308 308 308 308 308 309 309 309 309 311 314 314 313 314 315 314 313 314 315 314 314 314 314 313 312 312 311 308 304 303 303 302 301 300 300 300 299 298 298 297 296 296 295 295 294 294 294 294 294 294 294 293 293 293 293 292 292 292 291 291 291 290
316 320 323 323 324 328 333 330 325 325 324 318 314 318 326 327 325 321 314 311 313 314 315 316 314 314 315 312 311 311 311 311 310 309 309 309 308 308 308 308 308 308 308 309 311 313 314 314 314 315 313 313 314 314 313 313 313 313 312 311 310 308 305 303 302 301 301 300 300 299 299 298 298 297 297 296 296 295 295 295 294 294 294 294 294 294 294 293 293 293 292 292 291 291 290 290 290
316 319 322 322 324 325 323 323 322 322 324 321 317 321 325 324 324 318 311 310 313 313 313 314 315 315 313 311 310 310 311 311 310 310 309 308 308 308 308 308 308 308 308 309 311 313 314 313 314 314 312 313 315 314 313 313 313 312 310 309 307 305 303 302 301 300 300 299 299 299 298 297 297 297 296 296 296 295 295 295 295 294 294 294 294 294 294 293 293 292 292 291 291 290 290 289 289
318 318 321 320 318 319 319 319 315 315 320 322 320 322 323 322 322 318 315 318 318 315 311 310 313 314 311 311 311 309 310 310 310 311 309 308 308 307 307 307 308 309 308 309 311 312 312 311 313 313 311 313 315 314 313 313 312 310 309 307 304 302 302 301 300 300 299 298 298 298 297 297 297 297 296 296 296 295 295 295 295 295 294 294 294 294 294 293 293 292 291 291 290 290 290 289 289
320 321 320 316 315 319 323 323 321 321 323 323 321 321 321 322 322 319 317 318 319 319 316 311 309 310 310 311 311 309 309 310 310 311 309 308 308 307 307 307 308 308 308 308 310 311 311 310 312 313 311 312 314 313 313 312 311 309 307 304 302 301 301 300 299 299 299 298 297 297 297 297 297 296 296 296 295 295 295 295 295 295 295 294 294 294 294 293 292 292 291 290 290 290 289 289 289
317 320 317 318 323 324 322 323 325 325 324 325 323 320 319 320 321 322 321 322 323 321 318 316 312 309 311 313 311 308 309 309 310 310 309 308 308 307 307 307 307 308 308 308 309 310 310 310 313 314 312 311 312 312 313 312 310 307 304 302 301 300 300 299 299 299 298 298 297 297 297 297 296 296 295 296 296 296 296 296 295 295 295 294 294 294 294 293 292 292 291 290 290 289 289 289 289
313 315 314 318 324 323 322 322 323 325 326 327 326 322 322 321 322 323 321 324 328 323 319 320 315 311 313 313 310 309 309 309 310 310 309 308 307 307 307 307 307 308 308 308 308 309 310 310 313 314 312 311 311 312 312 311 308 305 302 301 300 299 299 298 298 298 298 297 297 297 297 296 296 296 295 296 296 296 296 296 295 295 295 294 294 294 293 293 292 291 291 290 289 289 289 289 288
315 317 317 317 318 319 322 321 321 325 327 328 327 324 323 325 324 324 323 322 323 322 323 320 313 312 314 312 309 310 310 309 310 310 309 308 307 307 307 306 307 308 308 308 308 309 310 311 313 313 311 310 310 311 311 310 307 303 301 300 299 298 298 298 297 297 297 297 296 296 296 296 296 295 295 296 296 296 296 295 295 295 295 294 294 293 293 292 292 291 290 290 289 289 289 288 288
317 318 318 317 317 319 321 320 320 323 323 326 327 323 324 326 322 322 326 324 317 314 318 316 311 312 313 311 311 311 309 310 310 310 310 309 307 306 306 306 306 307 308 308 309 309 310 311 313 312 310 309 310 311 311 310 306 303 301 300 299 298 297 297 297 296 296 296 296 296 296 295 295 295 295 296 296 296 296 295 295 294 294 294 293 293 292 292 291 290 290 290 289 289 289 288 288
Wind_Speed
1 1 2 3 3 3 2 2 3 4 4 3 2 1 1 2 2 3 1 1 1 4 7 9 9 10 9 11 11 10 6 2 3 2 3 5 8 7 6 6 7 8 10 11 11 9 9 10 10 10 9 7 7 8 8 8 9 9 10 10 10 10 9 9 9 9 10 10 11 11 11 11 11 12 12 12 13 12 11 11 11 12 13 15 16 16 16 15 14 13 12 9 7 5 4 4 4
2 3 4 4 2 2 2 3 2 3 5 3 2 2 2 2 1 5 3 1 5 9 19 21 18 17 15 15 12 11 9 5 3 4 6 9 9 7 6 6 8 9 10 11 11 10 9 9 9 9 9 7 7 8 8 9 9 9 9 9 10 10 9 8 8 7 8 9 10 10 10 9 10 10 10 11 11 11 10 9 10 12 13 15 16 16 16 15 15 15 13 11 8 5 4 3 3
3 4 4 3 2 2 3 4 3 2 5 2 3 3 1 0 4 6 4 9 15 17 18 16 13 10 8 7 6 5 4 4 5 6 7 10 8 8 8 9 11 9 10 12 11 11 9 9 9 9 8 7 7 8 8 9 9 10 9 9 9 10 9 8 7 7 7 8 9 10 9 9 9 9 9 10 10 10 9 8 9 12 13 14 15 16 16 16 16 16 15 12 9 7 4 3 2
4 4 3 3 2 3 3 4 2 4 3 3 2 4 3 4 7 6 4 11 16 14 9 7 7 6 6 6 5 4 4 3 5 6 8 10 9 8 10 12 12 10 11 13 12 11 10 10 9 9 8 8 8 8 8 8 9 9 9 9 8 9 9 8 7 6 6 7 8 8 8 8 8 8 9 9 9 10 10 10 10 11 12 14 16 17 16 16 16 17 17 14 11 8 6 4 3
5 4 1 3 2 2 4 3 2 5 3 4 3 5 5 6 7 5 3 8 15 11 7 7 5 5 9 7 3 3 3 4 5 6 7 9 10 10 11 12 12 10 12 13 12 11 10 9 9 10 9 8 8 8 7 7 7 7 7 8 7 7 8 8 7 7 6 6 6 7 7 7 7 8 8 8 8 10 11 12 12 11 12 14 16 17 16 16 16 17 17 16 13 11 9 7 5
5 4 3 3 4 3 4 3 3 2 4 6 4 5 5 7 7 5 7 9 12 12 9 7 7 8 8 7 6 4 5 4 6 7 8 9 9 11 12 12 12 11 12 13 12 11 10 8 8 9 9 9 8 7 7 6 5 5 6 6 7 7 7 7 7 7 6 5 5 5 6 6 7 7 7 7 8 10 11 12 12 12 13 15 16 16 16 16 16 16 17 17 15 14 12 10 9
4 3 3 6 5 4 4 4 4 2 3 5 4 5 7 9 8 8 7 7 7 7 9 10 12 11 6 4 5 4 7 6 7 9 10 9 9 11 12 13 12 11 12 13 12 11 10 9 9 9 9 8 8 7 6 6 5 4 5 5 6 6 7 7 7 7 6 5 5 5 5 5 6 7 6 7 8 9 10 10 10 11 13 14 15 16 16 15 15 16 16 16 16 15 14 13 12
3 3 3 5 4 5 4 3 3 2 2 4 4 5 8 10 11 7 3 3 3 5 11 14 10 6 2 3 2 5 7 7 9 11 11 9 9 11 12 14 13 11 12 14 13 11 11 10 9 9 9 8 8 7 5 5 5 4 5 5 5 5 7 7 7 7 6 6 5 5 5 5 5 6 6 6 7 8 9 8 9 11 12 14 15 17 18 16 15 15 15 16 16 15 15 14 14
4 3 4 5 3 4 3 3 1 2 2 4 4 4 8 10 9 5 4 3 5 8 13 12 3 2 6 4 4 7 7 10 13 13 12 10 10 11 13 14 12 12 12 14 14 11 10 10 10 10 10 9 8 7 7 6 5 5 5 4 4 5 6 7 8 7 6 6 6 5 4 4 5 6 5 5 6 7 7 7 9 11 13 14 16 18 20 17 15 16 15 16 16 16 15 15 15
3 3 4 4 3 4 3 1 0 1 3 4 3 4 7 10 7 6 7 5 6 7 8 7 2 6 10 7 6 8 9 13 15 14 13 11 10 10 13 14 13 12 13 14 13 11 11 11 11 11 12 11 10 9 8 7 6 5 5 5 4 5 7 7 8 7 6 6 5 4 4 4 4 5 5 5 5 6 7 7 9 10 12 14 16 18 20 18 16 16 16 15 16 15 15 15 15
2 4 5 5 4 3 2 3 2 3 4 4 3 4 6 10 8 7 7 7 5 5 7 5 4 12 11 6 7 9 11 15 15 15 14 13 11 10 12 13 13 12 13 14 12 11 11 11 11 12 12 11 11 10 9 8 7 6 5 5 5 5 7 7 7 7 6 5 3 3 4 4 4 4 5 4 4 4 6 8 8 10 12 14 15 17 18 18 16 16 16 15 15 15 15 15 15
2 2 4 4 3 3 4 4 3 4 5 3 2 3 6 10 9 7 7 8 6 6 7 4 8 15 7 2 8 10 12 15 16 15 14 14 12 11 12 12 12 12 13 13 13 13 12 11 12 12 13 12 12 11 10 9 8 7 7 6 6 6 6 6 6 6 6 5 3 3 4 3 4 4 4 4 3 3 6 7 7 9 10 12 14 15 17 17 16 16 16 16 16 15 15 15 15
3 2 5 3 3 4 4 4 3 2 4 3 4 3 6 10 10 11 12 9 6 6 3 4 13 12 4 2 8 12 13 15 16 16 16 15 14 13 13 13 13 13 12 11 12 14 15 16 14 13 14 13 13 11 11 10 9 8 8 7 6 7 6 6 6 5 5 5 3 3 5 4 3 3 3 2 2 2 4 5 5 7 9 11 13 13 15 16 16 16 17 17 17 17 16 15 14
4 4 5 3 2 3 5 3 2 2 3 5 4 3 6 6 8 15 15 8 2 5 4 10 16 7 3 5 8 15 15 15 18 16 16 16 16 15 14 15 15 15 13 12 16 16 15 18 16 14 15 15 14 13 12 11 10 9 9 8 7 8 7 6 6 5 5 5 3 3 4 4 4 4 3 2 2 1 2 4 4 6 7 10 11 12 14 15 15 16 17 18 18 18 17 16 14
5 4 5 4 3 2 3 2 2 5 5 4 4 5 6 5 8 13 12 6 3 7 8 12 14 3 4 8 8 18 17 15 18 17 18 16 17 17 17 18 17 18 18 19 20 17 13 15 16 14 15 17 16 14 14 12 11 11 10 9 8 9 7 7 7 7 7 6 4 4 4 5 4 4 3 3 3 1 1 2 3 5 6 8 10 11 12 13 14 15 16 17 17 17 17 16 15
5 4 5 4 2 2 3 2 3 3 5 5 7 7 7 5 8 8 5 5 8 11 9 9 14 5 5 11 10 17 18 16 18 18 19 17 18 19 19 21 19 19 20 20 18 16 13 13 16 17 18 19 18 16 15 14 13 13 11 10 10 10 9 9 9 8 9 8 6 5 5 5 5 5 4 4 3 2 0 1 2 4 5 7 8 9 10 12 12 13 14 15 16 17 17 16 16
5 4 5 3 3 4 4 4 4 4 5 5 8 9 6 3 5 6 3 7 10 11 8 8 13 9 7 12 12 17 17 16 18 18 19 19 19 19 19 21 21 20 19 20 18 16 15 13 16 19 21 21 20 19 18 17 16 15 13 12 12 12 11 10 10 10 9 8 8 7 6 6 6 6 6 5 4 3 2 1 1 3 4 5 7 7 9 10 11 11 12 14 15 16 16 16 16
3 3 5 3 4 4 5 7 7 4 4 7 10 10 8 5 6 7 5 6 8 9 8 9 11 10 10 13 13 18 17 16 18 18 19 20 20 21 20 21 21 22 21 21 20 18 17 16 16 17 20 22 22 22 22 20 19 17 15 14 13 13 13 11 10 10 10 9 9 9 8 7 7 7 6 5 4 3 3 2 1 2 2 4 6 6 7 9 9 10 12 13 14 15 15 15 15
4 3 4 3 5 4 4 7 9 4 3 10 11 9 9 8 10 11 5 4 7 6 6 8 10 11 12 13 15 19 18 17 18 18 19 18 20 21 21 22 22 22 22 21 20 19 18 18 18 17 19 21 23 24 23 21 20 18 17 16 15 14 14 12 11 11 11 11 11 10 9 9 8 8 7 6 6 5 5 4 3 2 2 3 5 5 6 7 7 9 11 12 13 13 14 14 14
2 4 3 4 6 3 3 5 10 7 4 10 10 8 9 9 11 11 6 4 5 5 8 9 11 14 14 14 16 19 19 18 18 18 19 19 19 20 20 22 22 22 21 20 19 18 18 17 18 19 20 22 24 24 22 22 22 21 20 18 16 16 15 14 13 13 12 12 11 11 10 10 9 9 9 7 7 6 7 6 4 3 3 3 4 4 4 5 6 7 10 12 12 11 11 12 12
2 3 3 5 6 3 2 4 7 8 7 11 10 6 7 9 10 10 7 5 4 11 15 13 12 14 15 16 18 19 20 19 20 20 20 20 20 20 20 20 20 21 20 20 19 19 18 17 18 19 20 21 23 22 22 24 24 23 22 20 18 17 16 15 14 13 13 13 12 12 11 11 10 10 9 8 7 6 9 8 4 3 2 3 4 3 3 3 4 5 7 10 12 10 9 9 9
3 1 2 6 7 2 3 6 6 8 9 10 9 7 7 10 9 10 10 6 6 10 14 15 13 11 13 16 17 19 20 20 20 20 20 20 20 20 20 19 19 19 19 19 19 19 19 18 18 18 19 20 21 21 21 22 21 20 21 20 20 19 17 17 15 15 15 14 13 11 11 11 10 10 10 10 9 7 10 8 5 4 2 3 4 2 2 2 3 4 5 8 10 9 7 6 7
2 1 0 6 6 3 6 8 8 10 10 10 9 7 8 10 6 9 14 12 11 9 10 12 14 12 12 15 17 18 19 19 20 20 20 20 19 19 18 17 16 17 17 17 18 18 18 18 18 17 18 19 20 21 20 18 15 16 20 21 21 19 18 19 18 17 17 17 15 12 11 11 11 11 11 11 9 8 10 10 7 6 5 5 4 1 3 4 5 5 5 6 7 6 4 4 6
4 1 0 4 5 5 8 8 8 9 9 10 9 7 9 10 6 6 14 18 16 14 12 11 14 14 14 16 17 16 17 17 18 19 20 20 19 19 18 15 14 15 16 16 17 18 18 18 17 17 18 19 21 21 20 18 16 17 21 22 20 19 19 20 20 20 20 21 18 14 13 12 12 12 12 12 9 8 9 12 13 9 9 9 5 2 3 4 6 6 3 4 5 3 3 3 4
4 2 2 3 3 5 8 7 8 8 7 8 8 8 9 10 7 6 13 17 17 17 14 11 13 15 16 17 17 16 16 16 18 19 20 21 21 19 18 16 14 14 14 14 15 15 15 15 16 16 17 19 22 22 21 20 20 22 23 21 17 18 20 20 20 20 20 20 19 16 14 13 13 13 14 13 10 8 8 11 14 11 9 7 4 3 3 3 5 7 3 2 4 2 2 1 2
1 3 3 3 2 4 8 8 8 8 8 8 8 6 7 8 6 8 15 16 15 16 14 13 13 16 17 17 17 16 16 17 18 19 20 21 21 20 18 16 15 14 13 13 13 12 13 14 14 15 17 19 22 24 24 23 23 24 24 20 17 19 21 20 20 20 19 19 17 15 14 13 14 14 15 13 9 9 9 9 10 8 7 6 6 5 4 7 7 6 5 2 3 0 1 2 2
2 3 1 1 2 4 6 9 10 8 8 9 9 5 5 7 4 7 13 14 15 15 15 15 15 16 18 17 17 16 16 17 18 19 20 21 20 19 18 16 15 14 13 13 12 12 13 13 13 14 17 20 22 24 25 25 23 23 21 18 18 22 21 19 18 18 18 18 15 13 13 13 13 14 15 12 8 8 8 8 8 8 8 7 7 6 5 6 7 7 6 3 3 3 2 2 2
3 3 2 4 4 5 7 9 11 8 5 9 10 4 2 4 4 8 11 13 16 17 17 17 18 18 18 18 17 17 18 18 18 19 19 19 19 18 17 16 16 15 13 13 13 13 13 13 13 14 17 20 22 24 25 26 24 23 22 18 18 20 19 16 17 18 17 15 13 12 12 12 11 11 10 7 6 8 9 9 9 9 8 7 6 6 5 4 5 7 6 4 5 4 4 3 3
3 4 2 6 8 6 7 7 9 8 4 6 7 3 4 5 9 11 9 13 16 17 18 19 19 19 19 19 18 18 19 20 21 21 19 19 19 18 18 17 16 15 14 13 14 14 14 14 14 15 17 19 22 25 26 25 24 23 23 21 20 17 14 13 14 16 15 12 13 13 13 14 12 11 9 8 9 10 12 11 9 9 8 6 6 6 4 4 5 7 5 5 6 6 5 3 3
1 4 2 4 8 6 4 2 5 7 3 5 7 3 6 8 13 11 9 14 17 18 20 20 21 21 20 20 20 20 20 21 22 21 20 20 20 19 18 17 16 15 15 15 14 14 15 15 15 16 17 20 22 25 26 25 23 23 23 23 22 19 17 18 16 14 15 14 13 13 14 14 13 12 11 11 12 11 11 9 8 8 7 7 7 6 6 6 8 8 6 6 7 6 4 2 2
1 1 2 2 2 5 5 0 6 6 4 7 8 3 7 8 11 10 11 15 18 20 22 22 23 22 22 22 22 22 22 22 22 22 22 21 21 20 19 18 16 16 16 16 14 15 16 15 16 17 17 19 21 24 25 24 24 23 22 21 21 20 19 20 20 17 17 17 15 14 13 12 12 12 12 12 11 9 8 7 7 6 7 9 8 7 8 10 11 9 8 8 8 7 4 2 2
3 1 3 3 1 5 8 2 10 6 3 8 7 3 7 9 8 8 13 17 19 21 22 23 24 24 24 24 23 23 23 23 23 24 24 22 22 20 20 19 17 17 17 16 14 14 15 15 16 16 17 20 22 24 24 25 25 22 21 22 21 23 22 20 21 19 16 16 15 15 13 12 12 12 13 12 10 8 7 7 7 6 8 9 7 8 11 12 10 9 9 9 8 7 5 4 4
4 1 3 2 2 3 7 3 7 4 2 5 4 2 4 5 3 5 13 18 20 21 21 23 25 26 26 26 25 25 25 26 27 27 26 24 23 22 20 19 18 18 17 16 14 13 14 14 16 16 17 20 21 22 23 23 22 20 21 22 21 20 21 20 20 19 16 14 14 15 14 13 14 14 14 13 11 10 9 9 8 8 10 11 9 10 11 9 9 8 7 6 5 4 4 5 4
3 1 2 4 3 2 3 4 4 3 3 4 4 3 7 6 2 3 11 17 20 22 24 25 25 27 27 27 27 27 28 29 30 29 27 25 24 23 22 20 19 18 16 15 14 14 13 13 16 17 17 20 21 22 23 22 22 21 20 22 23 20 18 18 15 14 15 15 15 16 15 15 17 16 14 12 11 10 10 10 10 10 11 12 11 9 8 7 6 4 3 3 2 2 3 4 4
3 3 2 3 3 2 4 5 2 5 2 4 4 4 11 13 9 9 12 16 21 25 26 25 25 27 28 29 30 30 31 32 31 30 28 26 24 24 23 21 20 17 15 15 14 14 14 14 16 16 17 20 22 23 23 21 23 24 23 22 23 21 21 20 16 14 15 16 16 16 16 16 15 14 13 12 10 10 10 9 9 10 9 8 6 5 5 4 3 1 1 2 2 3 3 4 4
6 6 5 4 4 4 5 6 5 5 3 5 7 7 11 12 13 13 14 18 22 25 24 23 25 27 29 31 33 33 34 33 32 30 29 26 25 24 23 21 19 17 15 15 16 15 14 15 17 17 20 20 21 26 24 21 24 27 26 22 20 21 20 20 19 17 17 16 16 15 15 13 12 12 12 11 9 8 9 9 8 8 7 6 5 4 4 4 2 2 3 4 5 7 8 8 6
5 5 4 4 5 5 5 5 6 3 4 6 8 9 11 12 12 14 14 16 19 22 22 25 28 30 32 34 35 36 36 34 32 31 30 27 25 24 23 21 20 18 17 17 16 15 15 16 17 19 21 19 20 25 23 20 22 24 23 20 21 24 21 18 18 18 17 15 14 14 13 12 11 11 11 10 9 7 8 8 7 7 7 7 6 5 4 4 4 5 6 8 8 7 9 10 8
3 4 3 3 4 6 7 5 5 1 4 6 6 7 11 12 12 15 11 10 17 24 25 28 33 33 36 36 37 38 36 35 33 32 32 29 27 26 24 23 21 20 19 18 16 16 17 18 18 18 20 20 21 24 22 21 21 21 22 20 20 20 18 17 17 16 15 14 14 13 12 11 10 9 10 10 9 8 8 9 9 8 8 7 6 6 6 6 7 8 6 6 7 6 8 9 8
1 2 2 3 3 4 7 5 3 1 4 5 4 4 9 12 12 14 14 14 21 30 31 34 36 36 38 39 39 38 37 37 36 35 34 31 29 27 26 25 23 21 19 17 17 18 19 20 20 19 21 22 23 24 23 21 21 22 22 22 21 19 16 17 17 15 14 13 13 12 11 11 10 10 11 10 10 9 9 9 10 9 9 8 7 8 10 9 9 9 6 5 5 5 7 8 6
3 3 3 4 3 2 4 5 3 0 2 3 4 5 7 10 9 11 20 24 26 30 32 35 37 37 39 39 38 39 39 40 39 37 36 33 31 29 28 27 24 22 20 18 19 20 21 22 22 22 24 23 24 25 23 22 23 22 21 20 21 20 18 17 16 14 13 13 13 13 13 13 12 12 12 11 11 11 11 11 12 12 12 11 9 10 11 11 10 9 7 6 5 4 6 7 6
5 6 6 6 5 6 7 4 4 3 3 3 3 6 6 8 10 11 13 14 20 27 28 31 37 38 39 37 37 40 40 41 40 39 38 36 34 32 30 28 26 24 22 21 20 20 21 23 24 24 25 25 23 22 23 24 23 20 21 23 22 21 19 18 16 14 15 15 15 16 15 14 14 13 13 13 13 14 14 14 13 13 13 12 10 9 8 8 7 7 7 7 5 5 5 6 7
5 6 10 10 9 8 7 3 5 4 5 3 3 4 6 5 8 10 6 2 10 18 19 27 35 35 36 38 40 40 38 38 39 38 38 37 36 34 31 29 28 26 24 22 20 19 20 22 24 24 26 27 23 20 21 23 21 19 21 23 23 21 19 18 17 17 17 18 17 17 17 16 16 16 17 17 16 16 15 14 13 12 11 10 8 6 5 5 5 5 6 6 5 6 6 5 6
4 5 9 12 9 7 6 3 1 1 4 4 2 2 7 6 7 9 5 5 10 12 12 21 31 32 35 40 41 39 37 37 38 37 38 38 37 36 33 31 30 27 25 22 20 20 20 22 23 24 26 27 24 23 23 22 23 24 23 22 21 20 19 19 19 19 19 19 19 19 19 20 20 20 20 19 17 15 14 13 11 10 9 8 6 5 5 5 5 5 6 6 6 7 6 4 5
4 5 6 9 8 8 7 5 4 4 3 4 3 2 5 8 8 6 5 8 10 11 11 16 27 32 34 37 38 37 37 38 38 39 39 39 39 37 35 32 30 28 25 23 22 21 22 24 24 23 25 25 22 24 25 23 24 24 22 21 20 18 18 20 22 22 21 21 21 22 23 24 23 21 19 18 16 14 13 12 10 8 7 6 6 5 5 7 7 7 7 7 7 7 6 6 7
5 3 5 6 6 5 4 5 4 2 3 5 4 1 4 8 6 3 0 6 8 11 13 15 24 30 30 32 34 34 36 37 38 40 40 39 39 37 34 31 29 28 25 24 24 22 23 27 26 25 27 27 24 24 23 21 21 20 19 19 19 18 20 22 24 24 23 24 25 26 26 25 23 21 19 17 15 14 12 10 9 8 7 7 7 6 7 8 8 8 8 8 8 8 8 8 8
4 6 7 5 5 5 4 4 3 2 2 6 5 3 4 8 4 2 2 3 7 10 12 14 20 23 23 26 30 31 34 36 36 37 37 38 38 36 33 31 30 28 26 26 25 24 25 29 29 28 29 29 26 24 22 22 23 22 22 21 21 21 24 26 27 27 27 28 28 28 26 25 23 21 19 16 14 13 11 10 9 8 8 8 8 8 9 9 9 9 9 9 9 9 10 10 9
8 7 6 6 6 5 4 3 4 1 5 7 8 9 6 7 3 4 3 4 7 9 8 11 15 16 16 20 23 26 31 34 35 35 35 35 35 35 33 32 31 30 28 27 28 28 27 29 29 29 29 27 25 23 23 25 25 23 22 22 21 23 27 29 29 31 31 31 29 28 26 24 22 20 18 16 14 12 11 10 9 8 8 8 8 9 9 9 9 9 10 10 10 10 10 10 10
7 4 5 4 4 4 4 4 3 1 6 5 6 7 8 9 6 3 6 6 5 7 7 9 11 11 11 13 16 20 25 30 32 33 34 35 36 37 36 34 33 33 32 30 31 32 31 30 30 29 27 26 25 24 25 26 25 23 22 22 21 24 28 30 31 32 32 31 29 27 26 23 21 19 17 16 14 13 11 10 9 8 8 8 8 8 8 9 9 10 10 10 9 9 9 9 9
4 4 6 4 3 3 2 3 1 4 7 3 1 2 4 10 8 6 8 9 8 10 12 14 13 14 14 12 13 16 21 26 30 32 34 36 38 39 38 37 36 35 34 33 34 35 34 32 33 31 29 28 26 26 26 26 25 24 24 23 23 25 28 30 32 31 31 29 27 25 24 22 21 19 18 16 14 13 11 9 9 8 8 8 8 8 8 9 9 9 9 8 8 8 8 7 7
6 5 6 5 2 1 3 3 2 5 6 4 1 1 4 6 4 9 13 13 15 15 17 20 20 20 19 16 14 15 19 23 27 31 34 36 39 40 40 39 38 37 35 35 37 37 36 34 35 33 31 30 29 28 28 27 27 26 25 25 25 27 30 32 31 29 28 27 25 22 21 20 20 19 18 16 14 13 11 10 9 8 7 7 7 8 8 8 8 8 7 7 7 6 6 6 6
7 5 6 6 5 5 4 3 4 5 4 4 2 2 4 2 3 8 9 10 15 19 22 22 23 24 22 20 17 16 19 23 25 29 32 36 39 40 40 40 39 37 36 36 37 38 38 36 35 33 31 31 32 31 30 29 28 27 26 27 27 29 32 32 30 28 26 25 24 22 21 20 19 18 17 15 14 13 11 10 9 8 7 7 7 7 7 7 7 6 6 6 5 5 5 5 5
3 3 4 4 6 5 2 3 5 2 2 3 2 4 5 3 6 9 7 8 11 19 23 22 27 30 25 23 21 19 21 23 25 28 31 35 38 40 40 40 39 38 37 37 38 39 39 37 35 33 31 32 33 32 31 30 29 28 28 28 30 32 33 31 30 28 26 25 24 23 22 21 20 18 17 16 14 13 11 10 9 7 7 6 6 6 5 5 5 5 4 4 4 3 4 4 4
2 3 4 4 4 5 2 3 1 3 3 4 3 6 5 3 7 8 6 8 9 11 14 18 27 28 23 25 26 22 22 22 24 27 30 34 38 40 41 40 40 39 38 38 40 40 39 38 36 34 33 33 32 32 32 31 30 30 30 30 33 35 34 31 30 29 27 26 25 24 23 22 20 18 17 16 15 14 12 9 8 7 6 5 5 4 3 3 4 4 3 3 3 3 3 3 3
5 4 6 3 2 2 2 2 3 3 4 5 2 6 6 2 6 4 2 8 11 9 10 14 20 20 21 28 27 23 22 20 22 27 30 34 37 39 41 40 40 39 38 39 40 39 38 37 38 37 36 35 33 33 33 32 31 31 32 33 35 35 33 31 30 29 28 28 27 26 24 22 21 20 18 17 15 13 12 10 7 6 5 5 4 3 3 2 3 2 2 2 3 3 3 3 3
4 4 6 5 2 1 2 2 2 1 3 5 3 5 5 5 6 2 3 10 12 12 11 11 13 16 24 29 25 21 20 20 24 29 32 34 37 39 40 40 40 39 38 38 39 39 38 38 39 38 36 34 33 33 32 32 32 32 33 35 37 36 34 32 31 30 29 29 28 27 25 23 22 21 19 17 15 13 11 9 8 7 6 5 4 3 2 2 2 1 1 2 2 3 3 4 4
4 3 3 2 2 4 3 3 3 3 2 4 3 4 5 6 6 6 10 12 11 11 10 8 12 22 28 27 22 20 21 22 25 28 32 34 36 38 39 39 39 39 39 39 39 39 39 39 39 38 36 35 34 34 33 33 33 34 35 37 38 37 35 33 32 31 30 30 29 27 26 25 24 22 20 18 15 13 11 10 9 8 7 6 5 4 3 3 2 1 1 2 3 3 4 4 5
3 4 5 3 1 2 1 1 2 4 3 2 3 6 8 5 4 8 11 10 10 11 9 8 16 24 24 20 20 21 21 23 25 27 31 33 35 37 38 38 38 39 39 39 39 40 40 40 40 39 38 37 37 36 34 34 34 36 37 39 39 38 36 34 33 32 32 31 30 28 27 26 25 23 21 19 17 14 13 11 10 9 9 8 7 6 5 4 3 2 2 2 3 4 5 5 5
7 7 8 8 6 4 2 3 2 3 3 4 3 7 10 5 4 6 7 6 7 10 10 9 16 21 18 16 17 19 20 22 24 25 28 32 34 36 37 38 38 40 41 41 41 41 42 42 41 40 40 40 39 38 36 35 35 38 39 40 39 39 37 36 35 34 33 32 31 29 28 27 26 24 22 20 18 16 15 14 13 12 11 10 9 7 6 6 4 3 3 3 4 5 5 6 6
Wind_Direction
294 154 154 140 140 146 139 118 89 20 66 84 1 74 207 213 213 155 95 352 48 20 70 103 106 108 105 103 114 97 70 123 167 138 154 169 154 161 160 154 154 147 158 161 157 151 145 141 136 132 128 128 121 111 106 98 92 88 88 88 89 91 102 116 113 99 99 101 94 87 80 75 69 65 59 49 50 53 56 62 63 58 49 42 39 36 32 30 27 24 22 22 28 38 46 44 43
117 149 151 140 122 183 196 80 86 354 56 76 299 165 223 329 120 159 155 113 132 103 93 95 92 92 94 96 95 79 54 47 113 135 133 141 150 159 161 164 156 152 160 161 159 151 148 146 140 138 134 132 126 121 112 103 97 91 90 90 92 96 104 118 120 106 102 103 99 93 87 81 71 65 59 48 48 48 48 54 54 48 40 34 31 29 28 27 26 25 23 23 31 43 54 51 46
117 152 155 160 100 114 148 62 86 83 75 123 255 245 273 40 175 187 160 125 126 113 100 93 83 77 87 88 60 61 78 71 102 123 130 138 147 153 157 159 150 150 160 162 162 155 151 151 151 148 142 134 129 127 117 108 101 94 91 88 92 97 104 117 125 117 106 104 101 99 94 86 75 62 54 48 50 47 46 53 49 41 34 28 25 26 27 28 29 28 29 29 34 46 61 72 58
123 141 149 183 131 89 81 49 113 117 109 172 226 260 255 182 189 202 150 131 138 127 113 96 72 65 82 92 67 72 120 125 122 136 146 147 150 152 151 153 147 146 160 165 164 160 156 157 160 157 151 142 137 131 121 112 105 98 93 90 90 97 105 117 127 125 114 108 103 101 98 91 77 59 51 49 51 49 51 55 47 37 29 25 24 26 27 29 31 32 34 36 40 48 58 72 70
130 133 149 217 171 92 85 73 104 102 168 179 157 252 248 198 198 204 129 139 165 164 145 113 94 96 83 79 84 103 138 150 148 155 163 157 152 153 156 154 145 142 158 165 164 164 162 164 164 161 158 151 146 136 126 118 111 104 98 98 98 103 112 121 131 132 125 116 107 103 98 87 69 57 55 55 54 56 59 58 51 40 32 29 28 27 27 29 32 35 39 43 48 53 57 62 60
136 121 79 116 117 103 108 97 116 113 209 169 147 239 233 206 200 155 105 112 153 161 152 129 129 123 86 68 80 127 145 151 168 175 180 168 151 154 162 154 141 141 157 164 166 166 164 171 172 165 161 158 155 144 134 127 118 114 109 106 109 116 122 129 137 138 135 125 117 110 98 80 64 61 65 65 63 65 66 64 57 47 40 35 31 26 26 30 33 37 41 47 54 59 62 61 56
146 139 78 101 80 55 104 115 151 165 194 174 177 202 204 208 185 143 113 102 123 144 146 138 133 116 91 88 85 136 147 155 168 174 184 175 154 153 161 153 142 143 157 167 168 169 170 176 181 176 169 167 166 159 149 142 136 128 123 115 114 120 126 134 140 143 142 133 128 119 103 84 69 73 80 76 72 71 70 68 60 49 44 38 31 27 26 32 37 40 42 49 57 62 65 65 62
135 143 85 98 41 30 94 98 166 179 156 216 240 190 190 190 171 148 116 120 123 133 136 137 132 103 128 158 139 155 152 167 167 173 182 180 164 150 157 152 142 146 159 169 170 172 178 181 188 189 182 179 179 175 169 165 162 150 139 125 118 121 128 138 144 146 143 140 139 130 114 96 83 87 92 84 78 76 73 66 55 48 44 37 32 28 27 33 41 43 45 50 57 61 65 66 65
114 116 89 90 66 44 62 47 151 220 259 250 252 211 188 174 166 143 102 98 119 137 146 152 135 99 167 165 156 162 164 175 171 176 180 182 174 153 155 153 146 150 156 167 171 173 180 186 193 196 194 190 188 189 187 183 182 169 156 142 133 132 134 140 145 147 147 148 151 145 127 110 100 100 98 89 82 77 73 62 52 48 42 38 34 31 31 37 44 47 49 52 57 60 62 63 63
96 89 107 85 80 63 49 35 236 242 259 261 244 220 186 176 165 134 126 112 127 141 161 181 161 134 156 151 152 163 165 174 174 178 181 180 179 165 159 156 157 158 160 167 170 176 182 190 198 201 201 199 196 197 198 195 197 186 177 166 155 150 141 143 146 146 149 151 156 153 133 116 106 102 99 91 84 71 62 56 53 50 45 42 38 35 36 43 49 51 53 56 59 61 63 63 63
88 62 104 80 77 108 163 191 247 255 274 312 276 216 191 188 159 127 129 121 138 133 138 168 153 138 140 146 163 169 167 173 175 177 180 177 180 180 172 168 168 169 172 171 175 182 184 191 200 206 202 202 204 202 206 205 204 197 190 179 164 163 150 145 148 146 149 144 144 149 139 121 107 103 98 91 83 63 48 48 53 51 49 47 43 40 41 47 53 56 57 58 60 62 64 65 65
141 26 82 88 124 161 186 166 205 266 305 323 225 204 185 186 160 140 136 127 141 130 132 168 161 145 125 153 174 170 169 174 177 180 179 174 178 184 186 183 173 178 183 179 183 186 185 194 200 208 204 203 208 206 210 210 209 203 193 185 171 170 159 153 155 151 150 137 139 158 152 135 121 119 107 95 83 62 44 45 51 49 49 50 47 45 47 51 55 59 60 60 60 60 61 62 63
152 145 86 97 151 144 146 144 207 289 317 248 197 162 158 178 168 154 140 124 134 128 124 172 159 150 119 181 182 178 174 177 181 184 181 173 177 185 193 191 181 188 193 183 192 195 191 195 197 204 204 205 211 210 213 213 211 208 197 192 181 178 174 168 164 156 155 144 149 175 172 162 148 146 128 102 90 71 43 47 49 44 48 50 48 48 52 55 57 60 61 61 60 58 58 58 60
133 142 97 105 106 108 137 137 221 168 236 240 198 168 156 179 171 153 139 118 134 131 129 158 157 149 149 169 191 187 175 178 187 189 187 178 180 189 197 198 193 194 197 189 200 213 203 196 196 202 207 206 211 213 214 214 214 212 204 200 193 190 187 180 177 168 169 164 164 199 201 187 177 178 161 136 141 115 44 53 45 40 46 50 49 49 53 57 60 62 62 63 62 60 59 57 58
118 117 88 107 90 84 159 169 167 152 215 221 167 173 143 146 157 156 146 130 160 144 139 161 167 174 191 188 199 189 175 178 192 194 193 189 187 192 198 205 207 199 199 200 204 214 212 205 198 199 213 208 207 213 215 217 217 214 208 209 206 200 197 192 190 183 183 183 182 206 217 206 196 196 194 182 187 221 51 57 40 43 43 49 53 51 54 57 60 63 62 63 63 62 61 58 57
103 100 76 91 119 154 179 169 123 130 232 207 160 154 123 128 151 159 169 152 154 151 154 172 184 221 221 200 197 186 174 178 195 198 197 199 197 197 199 205 214 210 208 212 214 214 214 217 199 192 210 210 204 210 214 217 217 216 213 214 214 211 207 201 196 191 193 192 192 205 215 211 208 210 218 212 207 225 205 61 46 48 40 50 59 57 59 61 61 61 59 62 65 64 61 59 58
88 79 67 87 152 182 188 175 165 167 227 213 173 164 132 141 160 157 169 162 157 159 176 181 193 223 218 199 193 184 178 181 195 199 199 203 205 207 208 207 212 216 218 220 224 223 215 214 206 201 211 210 206 210 211 213 216 216 215 213 217 218 210 205 201 195 197 198 199 207 214 216 216 218 225 228 221 220 210 165 76 56 46 60 66 63 65 69 70 65 62 64 67 67 66 65 64
77 94 89 129 174 190 182 179 192 170 187 194 183 177 154 159 172 157 141 148 152 158 181 181 193 210 198 193 190 186 186 188 196 202 203 205 208 211 216 216 215 217 221 223 226 227 217 211 214 214 213 209 207 214 212 211 217 216 215 213 215 217 210 211 211 203 200 204 208 210 212 218 220 223 227 232 231 223 218 201 143 96 70 76 79 70 62 71 77 70 67 67 70 72 73 72 70
80 102 96 177 200 199 196 193 199 185 181 182 177 181 170 174 175 167 167 166 153 150 175 177 185 190 187 192 191 191 194 198 202 205 207 209 212 214 218 220 222 223 224 226 227 227 221 216 216 215 217 211 209 219 217 213 219 217 215 214 212 214 214 217 219 214 208 206 212 214 214 216 221 225 224 231 236 228 219 202 175 157 119 94 96 82 61 71 76 69 68 67 68 74 76 73 69
71 93 94 223 213 206 234 204 201 214 202 169 168 185 183 182 177 179 191 172 180 202 191 184 194 195 191 192 192 195 199 204 207 208 211 213 214 217 220 222 225 227 228 230 231 232 229 225 221 218 221 217 214 222 220 217 221 220 219 216 214 215 217 220 220 220 217 212 212 215 217 216 222 229 226 230 235 222 206 198 193 180 154 109 99 87 61 73 75 62 65 71 68 70 75 71 65
55 101 144 205 180 164 213 178 196 213 192 168 164 170 181 185 182 191 176 145 239 236 215 212 218 211 202 196 194 198 204 209 212 214 216 217 219 220 222 224 226 228 231 232 233 236 235 234 231 226 226 223 222 225 223 224 226 226 225 219 218 219 220 221 220 219 218 216 215 217 221 218 221 232 233 226 228 221 203 207 213 195 175 104 102 99 61 71 79 59 57 66 68 69 73 72 63
68 38 212 170 152 145 170 149 159 176 168 163 159 157 179 183 191 206 187 178 235 236 229 230 233 229 217 207 201 201 206 213 218 221 221 222 223 223 223 224 225 227 230 231 232 235 237 236 235 233 231 228 227 226 225 228 228 229 231 226 221 220 223 223 221 221 218 218 215 216 220 219 220 228 234 223 222 215 203 217 220 199 197 109 111 107 33 23 37 50 48 47 59 68 71 68 54
104 347 252 165 178 182 160 150 148 161 167 170 173 181 184 178 205 222 209 222 238 245 247 236 236 232 221 214 209 207 210 216 221 225 228 228 227 226 226 224 223 225 226 228 230 232 235 236 236 233 232 230 228 227 226 222 216 220 226 229 224 218 222 222 222 221 218 218 215 219 219 215 222 226 230 224 216 201 204 223 216 199 203 162 145 227 322 335 347 23 40 26 39 62 61 50 34
112 125 139 168 205 194 163 158 161 172 186 193 193 198 194 191 209 226 223 234 244 252 256 241 234 227 216 212 211 212 213 218 223 226 230 231 231 229 228 227 226 225 223 222 224 228 232 235 237 235 232 230 227 226 226 216 200 203 216 229 226 217 221 221 224 223 220 222 220 226 224 213 223 226 226 223 212 201 212 224 212 198 194 179 168 217 302 319 328 348 7 355 7 55 51 26 22
74 142 195 151 180 187 172 175 184 194 207 206 202 201 204 203 209 238 235 237 241 246 250 240 225 219 216 211 211 214 217 222 224 226 229 229 231 230 230 231 228 224 220 217 220 224 226 230 235 236 233 229 226 223 224 218 203 200 215 229 222 216 223 219 222 224 221 228 226 223 224 222 227 229 227 219 210 210 217 221 214 204 196 196 211 243 279 255 289 315 270 299 344 51 48 349 355
49 134 157 145 167 189 190 203 202 207 216 202 199 209 216 209 219 259 245 238 237 234 235 231 220 216 215 213 216 219 224 229 230 228 228 228 230 230 229 227 224 221 222 224 226 227 228 230 229 231 231 228 227 221 220 222 214 211 218 224 218 221 227 219 221 226 221 227 227 218 220 226 229 231 228 216 213 225 222 221 224 225 225 236 255 268 260 227 255 275 227 279 330 288 358 309 307
97 95 92 182 214 224 217 222 218 216 223 210 203 217 228 203 201 253 240 229 229 224 220 220 218 217 217 219 223 227 233 234 232 229 226 226 226 226 224 221 222 224 228 233 236 237 237 236 230 227 228 227 228 222 220 222 218 218 219 214 219 225 223 221 224 227 223 222 222 219 221 228 235 236 226 210 214 235 229 221 224 233 240 244 249 246 230 236 259 246 227 259 254 240 307 297 288
76 39 314 292 311 279 237 227 227 219 231 224 208 223 245 176 195 241 234 222 223 221 218 217 217 219 221 224 228 233 236 232 228 226 223 224 224 223 224 223 226 229 232 237 240 244 244 242 237 230 229 229 227 222 219 222 217 215 215 208 212 214 213 224 226 226 230 227 223 223 221 225 233 234 228 217 219 234 236 224 219 225 231 233 237 231 225 259 262 234 233 235 224 254 293 291 293
54 47 323 305 350 323 242 227 225 204 225 222 190 257 274 203 222 234 225 215 215 217 218 219 218 221 225 228 233 235 235 231 226 222 220 221 223 225 227 229 233 236 237 239 242 246 248 246 243 237 233 230 224 217 215 221 219 214 216 208 205 211 215 220 221 224 226 217 214 214 213 220 227 229 232 233 222 223 227 222 218 219 221 232 239 240 257 274 238 220 227 229 239 264 276 274 274
47 54 40 318 357 334 256 221 202 186 210 188 157 260 267 239 239 229 214 210 207 210 216 220 220 222 226 229 234 236 234 232 226 222 221 221 224 227 229 232 236 241 243 243 244 247 250 247 244 239 234 228 221 213 213 219 218 215 217 210 208 218 220 215 215 223 218 206 204 203 206 220 231 231 227 223 218 217 218 217 218 213 220 240 240 247 269 258 225 211 216 232 247 258 262 255 241
18 22 29 9 355 283 289 109 157 163 214 180 151 249 263 265 260 235 220 215 208 213 216 219 223 224 227 230 233 236 235 233 228 223 222 224 226 228 232 235 237 241 243 244 243 244 249 247 242 237 229 224 215 208 209 215 217 215 216 212 210 213 215 215 219 226 223 213 211 212 215 222 227 226 223 222 219 214 214 219 219 219 237 237 233 244 240 222 209 205 212 223 233 238 238 227 232
30 8 304 346 174 263 308 261 169 162 205 175 154 247 267 276 276 239 217 212 211 218 221 222 224 226 228 231 233 235 236 232 228 226 224 225 228 230 234 236 238 239 240 243 243 244 248 243 237 233 223 216 210 206 208 213 221 221 214 211 211 215 221 224 221 221 212 205 213 219 219 219 222 224 221 218 215 217 229 233 225 233 239 221 211 222 214 204 203 213 223 224 231 238 240 245 262
2 78 247 274 176 269 322 287 198 186 132 178 196 247 274 288 299 222 203 206 211 218 226 227 228 230 230 233 234 235 234 231 230 228 226 227 229 233 235 237 238 237 240 245 248 250 249 240 231 224 214 209 206 205 205 210 216 207 200 205 205 209 217 219 218 217 206 208 221 220 217 218 221 224 221 215 211 218 228 228 221 223 223 211 210 215 210 213 219 227 233 229 242 254 251 254 257
313 358 243 241 195 206 300 309 252 196 147 209 227 240 253 264 305 216 203 208 212 219 230 231 231 233 233 235 236 236 234 232 232 230 229 229 230 233 235 237 239 239 244 249 253 252 247 237 226 216 205 202 203 202 200 206 208 201 201 207 206 208 214 211 217 222 216 222 225 219 221 220 220 223 221 212 205 210 217 220 219 214 209 206 211 213 213 221 218 218 218 203 226 245 241 238 229
200 195 213 250 239 214 248 287 249 165 176 231 206 241 258 266 275 251 225 214 214 225 233 235 236 236 236 237 237 238 237 234 234 232 232 231 231 234 235 236 238 239 244 246 247 246 241 229 219 212 200 197 201 200 199 206 212 213 213 210 208 213 218 217 225 230 219 218 217 214 217 218 218 215 208 202 201 212 216 212 210 198 190 194 204 209 206 198 178 177 184 175 176 166 170 176 173
166 173 163 195 231 252 236 253 248 176 172 233 212 227 249 261 268 254 234 218 219 231 237 238 240 239 238 239 239 239 239 238 235 232 233 233 232 234 235 236 237 237 239 240 239 236 231 222 214 206 198 201 205 203 205 211 210 209 208 208 213 215 216 219 222 220 210 208 210 209 210 209 204 197 193 192 192 204 202 191 189 182 173 175 184 192 184 166 155 161 146 129 132 136 133 134 138
129 130 149 198 214 262 250 252 282 189 168 242 224 225 246 252 261 261 242 218 222 234 239 240 240 239 240 239 240 240 240 240 236 233 233 233 233 234 234 234 233 233 233 232 232 226 221 216 212 205 199 203 208 204 207 211 208 206 205 210 219 215 212 213 212 206 201 202 201 198 196 191 186 183 180 175 173 182 184 174 173 175 167 165 172 177 170 160 144 130 126 120 120 127 126 126 128
107 124 187 248 216 252 253 242 293 173 171 261 241 226 253 251 254 264 247 205 223 232 232 239 241 240 241 241 242 241 240 240 235 233 233 231 231 231 230 231 231 232 232 232 227 217 212 208 207 207 201 201 202 202 203 204 210 216 213 211 214 210 202 200 203 200 195 194 190 184 182 177 170 168 164 162 165 174 179 169 168 170 161 160 169 162 149 144 131 118 110 108 111 116 118 122 127
140 132 175 264 241 270 278 271 305 155 180 264 272 241 257 258 256 260 245 222 236 239 235 242 244 241 242 241 242 241 239 238 234 232 231 229 229 228 228 229 229 229 229 230 221 210 208 206 204 200 198 198 198 203 207 204 209 213 209 206 211 215 207 199 199 195 188 186 181 174 171 166 158 158 158 159 167 172 175 171 165 160 147 147 158 149 138 132 124 117 106 94 98 105 112 120 130
197 173 175 244 241 256 277 288 320 258 211 268 293 284 272 268 264 259 249 240 244 249 246 248 248 244 246 248 247 244 240 238 234 230 229 226 226 226 225 227 226 224 223 221 216 212 208 205 202 197 196 199 199 206 211 208 205 205 205 206 209 211 203 193 192 189 183 179 173 165 162 159 157 163 162 162 168 165 163 161 154 149 141 139 143 141 135 130 125 120 113 100 92 104 122 130 137
236 205 199 224 225 215 232 285 331 332 332 0 339 302 274 254 254 254 256 244 245 251 249 249 249 247 248 250 249 247 243 241 236 231 228 225 225 226 225 225 225 224 223 220 216 216 209 203 201 198 197 201 202 207 210 207 203 202 203 198 193 193 189 187 191 187 176 170 168 163 161 160 161 165 160 158 159 153 150 149 145 147 142 136 136 136 132 125 120 115 108 107 111 110 116 133 139
269 228 207 216 219 223 240 309 1 352 320 336 17 299 274 258 253 256 274 276 250 250 244 245 249 248 245 245 245 244 243 241 238 235 232 228 226 226 224 223 225 225 224 219 214 214 208 201 200 199 201 203 203 203 204 205 207 208 206 197 191 191 189 185 190 187 175 170 169 165 161 159 158 157 151 149 148 146 145 143 143 144 138 132 130 128 122 112 111 111 101 102 108 96 93 117 128
266 244 206 212 211 218 236 209 117 247 260 289 66 221 271 286 262 252 238 230 252 253 247 250 252 249 244 244 245 243 240 238 236 234 232 229 226 225 223 223 224 225 222 214 208 206 202 197 198 201 202 202 202 200 199 204 207 204 203 205 205 205 200 190 184 182 176 171 168 164 158 153 151 150 147 146 145 145 144 141 139 136 131 127 120 115 113 104 99 96 89 79 75 78 79 78 86
237 250 183 190 198 209 218 184 191 234 258 313 23 130 271 279 263 258 201 208 254 265 260 259 254 249 245 244 245 243 242 240 236 233 229 227 226 226 226 224 224 225 218 209 204 201 197 195 198 203 200 198 204 201 195 199 202 197 195 201 204 205 208 198 183 177 174 171 166 159 155 151 149 149 148 147 146 145 143 139 134 132 130 124 115 113 106 97 89 82 80 72 66 69 68 56 55
246 221 136 155 171 180 168 144 191 297 13 295 302 98 272 269 257 325 71 204 246 260 254 255 252 251 248 247 247 244 244 242 240 237 232 228 225 225 225 224 223 222 214 207 204 199 196 194 198 205 200 195 201 200 194 197 201 206 209 211 210 207 205 197 184 177 172 168 164 157 155 153 151 152 151 151 148 144 142 138 135 133 130 121 115 107 96 91 86 80 78 74 70 65 62 55 47
201 130 93 78 73 80 86 109 138 43 342 245 235 160 255 271 230 122 44 210 230 245 249 253 256 256 254 253 252 247 243 241 239 237 233 230 226 223 223 221 219 218 211 205 202 198 199 198 199 204 197 190 195 200 205 210 209 213 218 222 223 211 198 190 182 175 169 167 164 159 157 157 156 157 155 153 150 146 145 141 137 134 125 116 108 97 91 88 83 79 74 69 64 56 54 50 40
132 108 66 52 34 40 52 51 85 35 271 233 212 189 203 271 260 168 192 207 210 225 245 261 265 264 258 257 255 248 243 240 236 232 229 226 223 220 219 218 217 214 207 202 200 198 199 199 197 196 193 192 196 204 212 215 210 212 217 223 225 210 196 189 180 173 169 167 166 162 161 162 160 160 158 156 154 151 150 143 137 132 119 109 101 93 87 81 76 70 63 59 53 46 45 40 33
120 91 80 72 346 8 23 354 52 243 258 237 221 195 188 239 259 217 237 251 225 216 235 257 268 273 267 261 258 251 244 239 234 229 224 220 217 214 214 215 215 211 206 201 198 198 199 201 200 199 202 201 200 204 210 211 209 213 219 221 219 208 198 190 180 173 170 169 169 166 165 166 164 164 163 161 159 153 150 143 134 126 114 105 96 88 82 75 69 62 56 51 44 39 34 31 27
114 97 113 117 321 355 340 303 96 234 259 284 316 140 205 243 247 234 250 264 247 225 230 245 261 274 278 275 267 256 244 237 232 227 223 218 215 213 212 213 213 210 207 202 198 199 201 204 208 209 211 210 206 206 209 209 211 215 216 212 210 206 198 188 178 174 171 172 174 172 171 171 170 169 167 165 161 152 147 142 133 124 113 103 93 84 76 70 63 57 52 43 36 31 25 23 18
167 148 147 158 158 187 259 268 277 265 271 307 6 143 250 276 262 231 232 240 242 239 244 252 262 269 274 277 272 258 244 236 232 227 223 219 216 214 213 213 214 211 208 203 201 203 204 206 210 209 209 211 210 209 208 210 212 212 211 208 206 202 193 184 179 177 175 175 177 177 176 176 175 173 169 166 161 153 149 142 133 124 112 100 90 81 72 67 62 54 45 35 28 23 18 17 11
187 164 147 167 167 173 211 215 229 259 286 299 291 188 215 220 274 252 245 255 253 250 254 259 265 268 271 274 266 252 242 234 230 227 225 222 218 215 214 214 215 213 209 205 203 204 205 207 209 206 204 208 210 209 209 210 210 209 207 206 203 198 189 182 180 181 178 177 179 179 179 178 177 174 169 166 161 156 153 147 137 127 114 101 90 82 73 67 60 49 41 31 23 17 14 11 5
220 128 127 196 187 168 197 203 184 189 305 295 229 222 221 207 269 269 267 284 262 247 252 257 261 262 265 267 261 251 242 233 229 228 225 222 218 215 215 215 216 214 210 207 204 204 205 206 208 207 207 210 210 209 210 209 208 207 205 202 198 193 188 184 183 182 181 180 182 183 182 180 178 176 172 170 165 158 155 151 141 129 116 105 97 89 78 69 60 51 42 31 20 10 5 2 356
169 136 184 213 173 147 184 265 58 83 264 271 202 243 284 312 279 268 244 259 260 253 256 252 252 257 261 262 258 251 243 234 231 231 227 223 218 215 215 215 216 215 212 209 206 206 208 207 207 207 209 211 210 210 210 209 208 205 202 198 194 191 189 188 186 185 183 183 184 186 185 182 179 178 176 173 169 162 157 152 144 136 127 120 114 104 94 82 68 57 46 27 9 354 347 345 341
128 181 200 165 73 85 122 247 351 47 254 270 218 246 279 280 273 312 130 227 250 259 256 250 253 258 259 258 255 249 245 238 234 233 228 224 219 216 215 216 217 218 216 212 208 208 209 208 208 207 208 210 210 210 210 209 207 203 198 194 192 192 192 190 189 188 188 187 188 188 187 185 182 180 179 176 171 167 162 158 154 153 148 142 141 134 121 102 81 65 44 8 341 325 319 317 317
122 175 176 135 139 217 122 173 225 183 251 280 285 270 264 210 225 270 178 210 231 241 241 249 260 255 252 255 254 247 242 236 231 229 227 223 220 217 216 216 217 217 218 216 211 209 207 208 210 210 211 212 210 209 209 209 207 202 196 193 192 193 193 192 192 192 193 193 192 190 189 188 186 183 181 178 175 173 172 170 169 170 167 164 167 166 157 142 107 66 13 328 299 288 293 299 304
55 101 156 136 146 180 168 161 175 171 222 275 312 310 268 216 200 202 210 212 213 225 234 240 247 248 250 254 254 248 242 236 233 230 228 224 220 218 217 217 217 217 218 217 212 208 206 208 210 208 209 213 212 211 210 210 206 199 195 194 194 195 195 194 195 196 197 196 195 194 191 191 189 185 183 182 181 181 181 182 180 180 182 185 189 189 189 182 161 178 252 262 269 276 286 291 293
145 156 177 191 119 114 161 183 138 137 162 215 269 284 268 236 185 192 207 215 211 210 216 228 240 247 255 262 261 257 249 242 237 233 230 226 222 219 217 217 218 217 218 218 214 209 207 208 209 208 209 211 211 212 211 210 206 199 196 196 196 196 196 197 197 199 200 199 197 196 195 193 191 188 187 187 188 187 189 190 188 188 192 194 196 196 197 195 189 200 219 246 269 276 278 281 283
180 189 192 187 173 141 169 232 203 137 173 185 186 267 269 239 182 200 200 206 218 209 205 227 244 249 264 279 277 270 260 248 241 236 233 228 223 220 217 216 217 217 218 217 215 211 209 209 209 210 212 211 211 212 211 211 207 200 197 198 198 198 198 199 199 200 201 200 199 197 196 195 193 192 192 192 193 194 194 194 192 193 194 193 194 197 200 197 191 201 224 252 267 269 270 273 279